Alliance, NE

1:54 PM MDT on July 21, 2017 (GMT -0600)
Alliance Municipal

Weather History for KAIA - December, 2012

Change the Weather History Date:

Friday, December 28, 2012

  Actual Average Record
Temperature  
Mean Temperature 9 °F 23 °F  
Max Temperature 29 °F 38 °F 64 °F (1999)
Min Temperature -12 °F 8 °F -12 °F (2012)
Degree Days  
Heating Degree Days 56 42  
Month to date heating degree days 1090 1156  
Since 1 July heating degree days 2653 2955  
Cooling Degree Days 0 0  
Month to date cooling degree days 0 0  
Year to date cooling degree days 959 564  
Moisture  
Dew Point 2 °F    
Average Humidity 79    
Maximum Humidity 95    
Minimum Humidity 62    
Precipitation  
Precipitation 0.00 in 0.01 in 0.15 in (1987)
Month to date precipitation 0.02 0.30  
Year to date precipitation 6.79 15.64  
Sea Level Pressure  
Sea Level Pressure 30.17 in    
Wind  
Wind Speed 8 mph (WNW)    
Max Wind Speed 16 mph    
Max Gust Speed 21 mph    
Visibility 10 miles    
Events      
T = Trace of Precipitation, MM = Missing Value Source: NWS Daily Summary

Daily Weather History Graph

Daily Weather History Graph

Search for Another Location

Airport or City:

Trip Planner

Search our weather history database for the weather conditions in past years. The results will help you decide how hot, cold, wet, or windy it might be!

Date:

Astronomy

Dec. 28, 2012 Rise Set
Actual Time 7:18 AM MST 4:27 PM MST
Civil Twilight 6:47 AM MST 4:59 PM MST
Nautical Twilight 6:11 AM MST 5:34 PM MST
Astronomical Twilight 5:37 AM MST 6:08 PM MST
Moon 5:07 PM MST (12/28) 7:13 AM MST (12/28)
Length of Visible Light 10h 12m
Length of Day
9h 08m
Full, 100% of the Moon is Illuminated
Dec 28
Full
Jan 4
Last Quarter
Jan 11
New
Jan 18
First Quarter
Jan 26
Full

Hourly Weather History & Observations

Time (MST) Temp. Windchill Dew Point Humidity Pressure Visibility Wind Dir Wind Speed Gust Speed Precip Events Conditions
12:53 AM -6.0 °F -18.6 °F -9.0 °F 87% 30.12 in 10.0 mi West 5.8 mph - N/A   Clear
1:53 AM -6.0 °F -16.9 °F -9.0 °F 87% 30.13 in 10.0 mi WSW 4.6 mph - N/A   Partly Cloudy
2:53 AM -9.9 °F -23.4 °F -14.1 °F 82% 30.16 in 10.0 mi West 5.8 mph - N/A   Clear
3:53 AM -9.0 °F -18.2 °F -13.0 °F 83% 30.15 in 10.0 mi WNW 3.5 mph - N/A   Clear
4:53 AM -9.0 °F -25.2 °F -13.0 °F 83% 30.15 in 10.0 mi WNW 8.1 mph - N/A   Clear
5:53 AM -9.9 °F -26.3 °F -15.0 °F 78% 30.16 in 6.0 mi WNW 8.1 mph - N/A   Haze
6:53 AM -11.0 °F -20.4 °F -16.1 °F 78% 30.18 in 10.0 mi West 3.5 mph - N/A   Overcast
7:53 AM -5.1 °F - -9.9 °F 80% 30.17 in 7.0 mi Calm Calm - N/A   Clear
8:53 AM 3.9 °F -5.3 °F -0.9 °F 80% 30.14 in 10.0 mi WNW 4.6 mph - N/A   Clear
9:53 AM 10.0 °F -2.9 °F 3.9 °F 76% 30.15 in 10.0 mi West 9.2 mph - N/A   Clear
10:53 AM 14.0 °F 2.9 °F 6.1 °F 71% 30.14 in 10.0 mi West 8.1 mph - N/A   Clear
11:53 AM 19.9 °F 10.1 °F 10.9 °F 68% 30.12 in 10.0 mi West 8.1 mph - N/A   Clear
12:53 PM 24.1 °F 17.0 °F 14.0 °F 65% 30.11 in 10.0 mi WNW 5.8 mph - N/A   Clear
1:53 PM 27.0 °F 17.3 °F 16.0 °F 63% 30.09 in 10.0 mi WNW 10.4 mph - 0.01 in   Scattered Clouds
2:53 PM 28.9 °F 18.2 °F 18.0 °F 64% 30.12 in 10.0 mi NW 13.8 mph - N/A   Mostly Cloudy
3:53 PM 27.0 °F 18.0 °F 16.0 °F 63% 30.15 in 10.0 mi NNW 9.2 mph - N/A   Clear
4:53 PM 19.0 °F 9.0 °F 14.0 °F 81% 30.19 in 10.0 mi NW 8.1 mph - N/A   Clear
5:53 PM 9.0 °F -3.2 °F 6.1 °F 88% 30.24 in 10.0 mi West 8.1 mph - N/A   Scattered Clouds
6:53 PM 6.1 °F -5.6 °F 3.9 °F 91% 30.26 in 10.0 mi West 6.9 mph - N/A   Clear
7:53 PM 10.9 °F -0.8 °F 8.1 °F 88% 30.24 in 10.0 mi West 8.1 mph - N/A   Overcast
8:53 PM 16.0 °F 1.7 °F 12.0 °F 84% 30.21 in 10.0 mi WNW 13.8 mph - N/A   Partly Cloudy
9:53 PM 16.0 °F 2.9 °F 10.9 °F 81% 30.21 in 10.0 mi West 11.5 mph - N/A   Mostly Cloudy
10:53 PM 12.0 °F -0.4 °F 8.1 °F 84% 30.22 in 10.0 mi WNW 9.2 mph - N/A   Partly Cloudy
11:53 PM 14.0 °F -0.2 °F 8.1 °F 77% 30.20 in 10.0 mi WNW 12.7 mph - N/A   Clear